Date,TemperatureHighF,TemperatureAvgF,TemperatureLowF,DewpointHighF,DewpointAvgF,DewpointLowF,HumidityHigh,HumidityAvg,HumidityLow,PressureMaxIn,PressureMinIn,WindSpeedMaxMPH,WindSpeedAvgMPH,GustSpeedMaxMPH,PrecipitationSumIn
2013-6-1,88.0,78.2,67.0,64.0,61.5,56.0,85,59,41,0.00,40.00,8,4,18,0.00
2013-6-2,85.0,76.4,68.0,67.0,62.2,-99.9,86,65,48,0.00,40.00,10,5,23,0.00
2013-6-3,78.0,69.9,64.0,65.0,59.8,54.0,87,73,45,0.00,40.00,7,3,17,0.00
2013-6-4,73.0,67.9,59.0,40.0,37.2,32.0,38,33,28,0.00,40.00,6,3,14,0.00
2013-6-5,74.0,62.2,49.0,45.0,38.9,31.0,59,43,34,0.00,40.00,8,3,12,0.00
2013-6-6,66.0,58.6,51.0,56.0,49.7,44.0,87,74,47,0.00,40.00,10,6,20,0.00
2013-6-7,61.0,59.1,57.0,57.0,55.2,53.0,87,87,87,0.00,40.00,15,10,24,0.00
2013-6-8,75.0,64.4,55.0,59.0,55.5,51.0,87,74,53,0.00,40.00,7,3,18,0.00
2013-6-9,79.0,67.4,55.0,58.0,52.6,49.0,87,63,37,0.00,40.00,8,2,15,0.00
2013-6-10,66.0,63.9,62.0,62.0,58.7,55.0,87,83,74,0.00,40.00,15,6,28,0.00
2013-6-11,75.0,68.8,65.0,65.0,60.6,55.0,87,76,54,0.00,40.00,10,4,25,0.00
2013-6-12,77.0,67.4,60.0,57.0,50.8,47.0,78,57,36,0.00,40.00,7,4,19,0.00
2013-6-13,63.0,59.4,55.0,56.0,53.5,50.0,88,81,62,0.00,40.00,15,6,27,0.00
2013-6-14,74.0,58.3,51.0,56.0,49.5,44.0,87,74,41,0.00,40.00,9,3,20,0.00
2013-6-15,78.0,64.7,54.0,55.0,49.8,44.0,87,63,32,0.00,40.00,6,2,18,0.00
2013-6-16,77.0,67.7,57.0,62.0,52.5,46.0,81,59,39,0.00,40.00,10,3,24,0.00
2013-6-17,83.0,71.0,62.0,66.0,59.1,50.0,86,68,32,0.00,40.00,7,3,15,0.00
2013-6-18,83.0,68.4,59.0,67.0,58.4,53.0,87,73,40,0.00,40.00,10,2,17,0.00
2013-6-19,74.0,63.3,55.0,55.0,46.3,40.0,87,58,30,0.00,40.00,6,3,14,0.00
2013-6-20,78.0,61.0,52.0,53.0,46.8,43.0,81,62,32,0.00,40.00,6,1,13,0.00
2013-6-22,82.0,78.0,72.0,61.0,59.5,58.0,68,53,45,0.00,40.00,8,4,15,0.00
2013-6-23,86.0,75.7,64.0,68.0,62.4,60.0,86,65,45,0.00,40.00,9,4,16,0.00
2013-6-25,88.0,75.8,66.0,68.0,63.1,61.0,86,67,43,0.00,40.00,11,3,24,0.00
2013-6-26,83.0,73.5,65.0,66.0,62.3,60.0,87,70,47,0.00,40.00,8,3,13,0.00
2013-6-27,87.0,75.5,67.0,70.0,63.5,60.0,87,69,42,0.00,40.00,11,3,19,0.00
2013-6-28,84.0,74.4,68.0,68.0,63.2,59.0,87,70,45,0.00,40.00,9,4,27,0.00
2013-6-29,83.0,73.6,65.0,64.0,59.1,55.0,86,64,39,0.00,40.00,7,3,18,0.00
2013-6-30,84.0,74.7,67.0,70.0,65.0,58.0,84,72,57,0.00,40.00,7,2,15,0.00